Weather History for KJCT - December, 2012

Change the Weather History Date:

Friday, December 14, 2012

  Actual Average Record
Temperature  
Mean Temperature 62 °F -  
Max Temperature 69 °F 59 °F 82 °F (2008)
Min Temperature 55 °F 30 °F 21 °F (1997)
Degree Days  
Heating Degree Days 3    
Growing Degree Days 12 (Base 50)    
Moisture  
Dew Point 56 °F    
Average Humidity 79    
Maximum Humidity 94    
Minimum Humidity 68    
Precipitation  
Precipitation 0.00 in - - ()
Sea Level Pressure  
Sea Level Pressure 29.93 in    
Wind  
Wind Speed 10 mph (South)    
Max Wind Speed 24 mph    
Max Gust Speed 30 mph    
Visibility 8 miles    
Events Rain    
Averages and records for this station are not official NWS values.
T = Trace of Precipitation, MM = Missing Value Source: NWS Daily Summary

Daily Weather History Graph

Daily Weather History Graph

Search for Another Location

Airport or City:

Trip Planner

Search our weather history database for the weather conditions in past years. The results will help you decide how hot, cold, wet, or windy it might be!

Date:

Astronomy

Dec. 14, 2012 Rise Set
Actual Time 7:28 AM CST 5:39 PM CST
Civil Twilight 7:01 AM CST 6:06 PM CST
Nautical Twilight 6:31 AM CST 6:36 PM CST
Astronomical Twilight 6:02 AM CST 7:05 PM CST
Moon 8:37 AM CST (12/14) 7:29 PM CST (12/14)
Length of Visible Light 11h 04m
Length of Day
10h 11m
Waxing Crescent, 3% of the Moon is Illuminated
Dec 14
Waxing Crescent
Dec 19
First Quarter
Dec 28
Full
Jan 4
Last Quarter
Jan 11
New

Hourly Weather History & Observations

Time (CST) Temp. Dew Point Humidity Pressure Visibility Wind Dir Wind Speed Gust Speed Precip Events Conditions
12:51 AM 57.9 °F 48.9 °F 72% 30.05 in 9.0 mi South 11.5 mph - N/A   Overcast
1:51 AM 57.9 °F 50.0 °F 75% 30.04 in 9.0 mi South 9.2 mph - N/A   Overcast
2:34 AM 57.2 °F 50.0 °F 77% 30.10 in 9.0 mi South 8.1 mph - N/A   Overcast
2:51 AM 57.0 °F 51.1 °F 81% 30.03 in 9.0 mi South 9.2 mph - N/A   Overcast
3:42 AM 55.4 °F 51.8 °F 88% 30.09 in 8.0 mi SE 5.8 mph - N/A   Overcast
3:51 AM 55.0 °F 51.1 °F 86% 30.02 in 7.0 mi SE 5.8 mph - N/A   Overcast
4:51 AM 55.0 °F 52.0 °F 89% 30.01 in 6.0 mi SE 4.6 mph - N/A   Overcast
5:35 AM 55.4 °F 51.8 °F 88% 30.05 in 4.0 mi East 5.8 mph - N/A   Overcast
5:51 AM 55.0 °F 52.0 °F 89% 29.99 in 5.0 mi NE 5.8 mph - N/A   Overcast
6:12 AM 55.4 °F 53.6 °F 94% 30.06 in 8.0 mi East 4.6 mph - N/A   Overcast
6:40 AM 57.2 °F 53.6 °F 88% 30.05 in 9.0 mi ENE 6.9 mph - N/A   Overcast
6:51 AM 57.0 °F 53.1 °F 87% 29.99 in 9.0 mi East 4.6 mph - N/A   Overcast
7:51 AM 61.0 °F 55.0 °F 81% 29.99 in 10.0 mi South 12.7 mph 20.7 mph N/A   Overcast
8:51 AM 62.1 °F 55.0 °F 78% 29.98 in 10.0 mi South 11.5 mph - 0.00 in   Overcast
9:51 AM 62.1 °F 55.9 °F 80% 29.97 in 10.0 mi South 11.5 mph - N/A   Overcast
10:43 AM 62.6 °F 55.4 °F 77% 30.03 in 10.0 mi South 12.7 mph 20.7 mph N/A   Overcast
10:51 AM 63.0 °F 55.9 °F 78% 29.93 in 10.0 mi SSE 15.0 mph 20.7 mph N/A   Overcast
11:17 AM 64.4 °F 57.2 °F 77% 30.01 in 7.0 mi South 24.2 mph 29.9 mph N/A   Overcast
11:51 AM 64.9 °F 57.0 °F 75% 29.93 in 10.0 mi South 8.1 mph 20.7 mph N/A   Overcast
12:51 PM 64.9 °F 57.0 °F 75% 29.86 in 9.0 mi South 18.4 mph 24.2 mph N/A   Overcast
1:36 PM 64.4 °F 57.2 °F 77% 29.92 in 9.0 mi SSW 17.3 mph 25.3 mph N/A   Overcast
1:51 PM 64.9 °F 57.9 °F 78% 29.83 in 8.0 mi South 16.1 mph 25.3 mph N/A   Overcast
2:29 PM 66.2 °F 57.2 °F 73% 29.87 in 9.0 mi SSE 12.7 mph 20.7 mph N/A   Overcast
2:51 PM 66.9 °F 57.9 °F 73% 29.78 in 8.0 mi South 17.3 mph 28.8 mph N/A   Overcast
3:51 PM 66.9 °F 59.0 °F 76% 29.76 in 9.0 mi South 17.3 mph 23.0 mph N/A   Overcast
4:51 PM 66.9 °F 59.0 °F 76% 29.77 in 9.0 mi South 17.3 mph 24.2 mph N/A   Overcast
5:51 PM 68.0 °F 59.0 °F 73% 29.76 in 10.0 mi South 16.1 mph 25.3 mph N/A   Mostly Cloudy
6:51 PM 68.0 °F 60.1 °F 76% 29.78 in 9.0 mi South 15.0 mph 21.9 mph N/A   Mostly Cloudy
7:51 PM 68.0 °F 60.1 °F 76% 29.78 in 9.0 mi South 12.7 mph 21.9 mph N/A   Mostly Cloudy
8:10 PM 68.0 °F 60.8 °F 78% 29.86 in 9.0 mi South 13.8 mph 21.9 mph N/A   Scattered Clouds
8:51 PM 68.0 °F 61.0 °F 78% 29.79 in 9.0 mi South 12.7 mph - N/A   Clear
9:51 PM 68.0 °F 61.0 °F 78% 29.82 in 9.0 mi West 8.1 mph - N/A   Scattered Clouds
10:02 PM 69.8 °F 60.8 °F 73% 29.92 in 9.0 mi WNW 8.1 mph - N/A   Mostly Cloudy
10:51 PM 66.0 °F 60.1 °F 81% 29.86 in 9.0 mi NW 10.4 mph - 0.00 in Rain Light Rain
11:20 PM 62.6 °F 55.4 °F 77% 29.95 in 7.0 mi WNW 9.2 mph - 0.00 in   Mostly Cloudy
11:39 PM 62.6 °F 55.4 °F 77% 29.95 in 7.0 mi WNW 4.6 mph - 0.00 in   Overcast
11:51 PM 62.1 °F 55.0 °F 78% 29.88 in 7.0 mi WNW 3.5 mph - 0.00 in   Overcast